Regional Weather Roundup
Issued by NWS

Home | Current Version | Previous Version | Graphics & Text | Print | Product List | Glossary On
Versions: 1 2 3 4 5 6 7 8 9 10 11 12 13 14 15 16 17 18 19 20 21 22 23 24 25 26 27 28 29 30 31 32 33 34 35 36 37 38 39 40 41 42 43 44 45 46 47 48 49 50
000
ASUS43 KDTX 190510
RWRMI
MICHIGAN HOURLY REGIONAL WEATHER ROUNDUP
NATIONAL WEATHER SERVICE DETROIT/PONTIAC MI
100 AM EDT SUN APR 19 2015

NOTE: "FAIR" INDICATES FEW OR NO CLOUDS BELOW 12,000 FEET WITH NO
SIGNIFICANT WEATHER AND/OR OBSTRUCTION TO VISIBILITY.

MIZ047>049-052>055-059>063-066>070-074>076-081>083-190600-
SOUTHEAST LOWER MICHIGAN

CITY           SKY/WX    TMP DP  RH WIND       PRES   REMARKS
ADRIAN         MOCLDY    51  29  42 E14       30.10S
ALMA           CLEAR     41  35  80 NE6       30.16F
ANN ARBOR      MOCLDY    48  30  49 NE7       30.11F
BAD AXE        CLEAR     40  28  63 E5        30.19S
CARO           PTCLDY    41  29  62 CALM      30.18S
DETROIT CITY   PTCLDY    46  31  55 NE9       30.13F
DETROIT        MOCLDY    50  30  46 NE9       30.12F
FLINT          CLEAR     45  29  53 E9        30.16F
GROSSE ILE     MOCLDY    46  36  66 NE13      30.10F
HILLSDALE      MOCLDY    53  22  29 E13       30.07F
HOWELL         PTCLDY    45  28  52 NE5       30.11F

CITY           SKY/WX    TMP DP  RH WIND       PRES   REMARKS
JACKSON        PTCLDY    49  23  36 E8        30.09F
LAMBERTVILLE   MOCLDY    50  32  50 NE6       30.10F
LANSING        PTCLDY    46  28  49 NE12      30.12F
LAPEER         FAIR      42  29  61 E7        30.16F
MASON          PTCLDY    45  28  51 E7        30.11F
MONROE         MOCLDY    48  32  53 NE6       30.09S
PONTIAC        PTCLDY    45  29  53 NE12      30.12F
PORT HOPE        N/A     41  34  76 NE13      30.18F
PORT HURON     PTCLDY    39  32  75 N5        30.17F
TRI CITIES     CLEAR     42  34  73 E8        30.18S
TROY           PTCLDY    46  30  52 NE10      30.15F
SAGINAW HB     CLEAR     36  32  87 N5        30.17F WCI  32
$$
MIZ043>046-050>051-056>058-064>065-071>073-077>080-190600-
SOUTHWEST LOWER MICHIGAN

CITY           SKY/WX    TMP DP  RH WIND       PRES   REMARKS
BATTLE CREEK   PTCLDY    54  22  28 E13       30.07F
BENTON HARBOR  MOCLDY    58  34  40 E15       30.01F
BIG RAPIDS     CLEAR     45  29  53 E10       30.14F
COLDWATER      PTCLDY    54  18  24 E8        30.06F
FREMONT        FAIR      47  27  45 E14G21    30.09F
HOLLAND        PTCLDY    53  29  39 E14       30.06F
GRAND RAPIDS   PTCLDY    48  31  51 E16       30.09F
IONIA          FAIR      46  30  53 E12       30.11F
KALAMAZOO      PTCLDY    55  23  28 E8        30.06F
LUDINGTON      CLEAR     51  14  23 E13G21    30.10S
MARSHALL       PTCLDY    50  23  34 NE6       30.07F
MOUNT PLEASANT CLEAR     39  32  75 CALM      30.17F
MUSKEGON       PTCLDY    51  28  41 E18G25    30.07F
SOUTH HAVEN    MOCLDY    58  22  25 E12       30.02F
$$
MIZ016>042-190600-
NORTHERN LOWER MICHIGAN

CITY           SKY/WX    TMP DP  RH WIND       PRES   REMARKS
ALPENA         CLEAR     32  27  81 CALM      30.21F
BEAVER ISLAND  CLEAR     40  28  61 E9        30.14F WCI  34
BELLAIRE       CLEAR     49  21  34 E5        30.14S
CADILLAC       CLEAR     42  27  55 E9        30.14S
CHARLEVOIX     CLEAR     47  25  41 E9        30.17F
FRANKFORT      CLEAR     52  16  23 SE9G21    30.10S
GAYLORD        CLEAR     42  22  44 VRB3      30.16F
GRAYLING       CLEAR     36  22  55 E6        30.17S WCI  31
HARBOR SPRINGS CLEAR     44  24  44 E10       30.16F
HOUGHTON LAKE  CLEAR     39  26  59 E6        30.17S WCI  35
MANISTEE       CLEAR     48  19  32 SE15G22   30.11S
OSCODA         CLEAR     35  31  87 NE5       30.19F WCI  31
PELLSTON       CLEAR     37  26  64 E3        30.17F
ROGERS CITY    CLEAR     38  32  77 SE6       30.22S WCI  34
TRAVERSE CITY  CLEAR     48  25  40 VRB5      30.13S
$$
MIZ007>008-015-190600-
EASTERN UPPER MICHIGAN

CITY           SKY/WX    TMP DP  RH WIND       PRES   REMARKS
KINROSS        CLEAR     36  28  75 E13       30.19F WCI  27
MACKINAC ISLAN CLEAR     42  27  55 E14G21    30.17F
NEWBERRY       CLEAR     33  28  82 E5        30.15F WCI  29
S. S. MARIE    CLEAR     37  27  67 E5        30.20F WCI  33
MUNISING         N/A     31  27  85 S5        30.14F WCI  26
$$
MIZ004>006-011>014-085-190600-
CENTRAL UPPER MICHIGAN

CITY           SKY/WX    TMP DP  RH WIND       PRES   REMARKS
MANISTIQUE     CLEAR     37  27  68 E6        30.14F WCI  32
ESCANABA       CLEAR     39  28  65 NE7       30.12F WCI  34
MENOMINEE      CLEAR     43  30  61 E18G24    30.09S
SAWYER-GWINN   PTCLDY    36  28  75 E5        30.12F WCI  32
$$
MIZ001>003-009>011-084-190600-
WESTERN UPPER MICHIGAN

CITY           SKY/WX    TMP DP  RH WIND       PRES   REMARKS
IRON MOUNTAIN  CLEAR     40  28  62 VRB3      30.09F
HOUGHTON       PTCLDY    33  29  85 E12       30.10F WCI  24
COPPER HARBOR    N/A     41  26  55 S9        30.12F
IRONWOOD       MOCLDY    52  14  22 E9G16     29.99S
$$

ABBREVIATIONS USED IN REMARKS
   TC - TEMPERATURE IN CELSIUS
  WCI - WIND CHILL INDEX
   HX - HEAT INDEX
  VSB - VISIBILITY



USA.gov is the U.S. government's official web portal to all federal, state and local government web resources and services.